Anielina, Poland

12:47 AM CET on January 22, 2017 (GMT +0100)
Warsaw Frederic Chopin Airport

Weather History for EPWA - December, 2013

Change the Weather History Date:

Monday, December 23, 2013

  Actual Average Record
Temperature  
Mean Temperature 40 °F -  
Max Temperature 47 °F 32 °F 57 °F (2015)
Min Temperature 33 °F 22 °F 3 °F (2012)
Degree Days  
Heating Degree Days 25    
Moisture  
Dew Point 37 °F    
Average Humidity 80    
Maximum Humidity 100    
Minimum Humidity 64    
Precipitation  
Precipitation 0.00 in 0.03 in - ()
Sea Level Pressure  
Sea Level Pressure 30.05 in    
Wind  
Wind Speed 8 mph ()    
Max Wind Speed 16 mph    
Max Gust Speed -    
Visibility 8.3 miles    
Events Fog , Rain    
Averages and records for this station are not official NWS values.
T = Trace of Precipitation, MM = Missing Value Source: Averaged Metar Reports

Daily Weather History Graph

Daily Weather History Graph

Search for Another Location

Airport or City:

Trip Planner

Search our weather history database for the weather conditions in past years. The results will help you decide how hot, cold, wet, or windy it might be!

Date:

Astronomy

Dec. 23, 2013 Rise Set
Actual Time 7:43 AM CET 3:26 PM CET
Civil Twilight 7:02 AM CET 4:07 PM CET
Nautical Twilight 6:18 AM CET 4:51 PM CET
Astronomical Twilight 5:37 AM CET 5:33 PM CET
Moon 10:01 PM CET (12/23) 10:20 AM CET (12/23)
Length of Visible Light 9h 05m
Length of Day
7h 43m
Waning Gibbous, 70% of the Moon is Illuminated
Dec 23
Waning Gibbous
Dec 25
Last Quarter
Jan 1
New
Jan 8
First Quarter
Jan 16
Full

Hourly Weather History & Observations

Time (CET) Temp. Windchill Dew Point Humidity Pressure Visibility Wind Dir Wind Speed Gust Speed Precip Events Conditions
12:00 AM 41 °F - 35 °F 73% 30.06 in 9 mi South 4.5 mph - -   Partly Cloudy
12:00 AM 41.0 °F 35.8 °F 35.6 °F 81% 30.04 in 6.2 mi SSW 8.1 mph - N/A   Scattered Clouds
12:30 AM 41.0 °F 35.2 °F 35.6 °F 81% 30.04 in - SSW 9.2 mph - N/A   Clear
1:00 AM 42 °F - 36 °F 71% 30.05 in 12 mi SSW 4.5 mph - -   Mostly Cloudy
1:00 AM 41.0 °F 35.8 °F 35.6 °F 81% 30.04 in 6.2 mi SSW 8.1 mph - N/A   Scattered Clouds
1:30 AM 42.8 °F 38.0 °F 35.6 °F 76% 30.01 in 6.2 mi SSW 8.1 mph - N/A   Mostly Cloudy
2:00 AM 44 °F - 36 °F 64% 30.04 in 12 mi SW 6.7 mph - -   Mostly Cloudy
2:00 AM 42.8 °F 37.5 °F 35.6 °F 76% 30.01 in 6.2 mi SW 9.2 mph - N/A   Mostly Cloudy
2:30 AM 42.8 °F 36.6 °F 35.6 °F 76% 30.01 in 6.2 mi SW 11.5 mph - N/A   Mostly Cloudy
3:00 AM 44 °F - 36 °F 66% 30.03 in 12 mi SW 8.9 mph - -   Mostly Cloudy
3:00 AM 44.6 °F 38.8 °F 35.6 °F 71% 30.01 in 6.2 mi SW 11.5 mph - N/A   Mostly Cloudy
3:30 AM 44.6 °F 38.8 °F 37.4 °F 76% 30.01 in 6.2 mi SW 11.5 mph - N/A   Mostly Cloudy
4:00 AM 45 °F - 37 °F 65% 30.01 in 12 mi SW 8.9 mph - -   Mostly Cloudy
4:00 AM 44.6 °F 39.7 °F 37.4 °F 76% 29.98 in 6.2 mi SW 9.2 mph - N/A   Mostly Cloudy
4:30 AM 44.6 °F 39.7 °F 37.4 °F 76% 29.98 in 6.2 mi SSW 9.2 mph - N/A   Mostly Cloudy
5:00 AM 45 °F - 38 °F 68% 30.01 in 12 mi SW 8.9 mph - -   Mostly Cloudy
5:00 AM 44.6 °F 39.7 °F 37.4 °F 76% 29.98 in 6.2 mi SW 9.2 mph - N/A   Mostly Cloudy
5:30 AM 44.6 °F 39.2 °F 37.4 °F 76% 29.98 in 6.2 mi SSW 10.4 mph - N/A   Mostly Cloudy
6:00 AM 45 °F - 38 °F 69% 30.00 in 12 mi SSW 6.7 mph - - Rain Light Rain
6:00 AM 44.6 °F 39.2 °F 39.2 °F 81% 29.98 in 6.2 mi SSW 10.4 mph - N/A   Mostly Cloudy
6:30 AM 44.6 °F 38.8 °F 37.4 °F 76% 29.98 in 6.2 mi SSW 11.5 mph - N/A   Scattered Clouds
7:00 AM 44 °F - 38 °F 71% 29.99 in 12 mi SSW 6.7 mph - -   Partly Cloudy
7:00 AM 44.6 °F 38.8 °F 37.4 °F 76% 29.98 in 6.2 mi SSW 11.5 mph - N/A   Partly Cloudy
7:30 AM 44.6 °F 39.2 °F 37.4 °F 76% 29.98 in - SW 10.4 mph - N/A   Clear
8:00 AM 45 °F - 38 °F 67% 30.01 in 12 mi SW 8.9 mph - -   Mostly Cloudy
8:00 AM 44.6 °F 38.4 °F 37.4 °F 76% 29.98 in 6.2 mi SW 12.7 mph - N/A   Partly Cloudy
8:30 AM 44.6 °F 38.1 °F 39.2 °F 81% 29.98 in 6.2 mi SW 13.8 mph - N/A Rain Light Rain
9:00 AM 44 °F - 39 °F 76% 30.02 in 9 mi SW 8.9 mph - - Rain Light Rain
9:00 AM 44.6 °F 38.4 °F 39.2 °F 81% 30.01 in 6.2 mi SW 12.7 mph - N/A Rain Light Rain
9:30 AM 44.6 °F 38.1 °F 39.2 °F 81% 30.01 in 6.2 mi SW 13.8 mph - N/A   Mostly Cloudy
10:00 AM 46 °F - 39 °F 68% 30.03 in 12 mi WSW 8.9 mph - -   Partly Cloudy
10:00 AM 46.4 °F 40.4 °F 39.2 °F 76% 30.01 in 6.2 mi WSW 13.8 mph - N/A   Mostly Cloudy
10:30 AM 46.4 °F 40.7 °F 39.2 °F 76% 30.01 in 6.2 mi WSW 12.7 mph - N/A   Mostly Cloudy
11:00 AM 47 °F - 39 °F 65% 30.04 in 12 mi WSW 6.7 mph - -   Partly Cloudy
11:00 AM 46.4 °F 40.7 °F 39.2 °F 76% 30.01 in 6.2 mi SW 12.7 mph - N/A   Scattered Clouds
11:30 AM 46.4 °F 41.1 °F 39.2 °F 76% 30.01 in 6.2 mi WSW 11.5 mph - N/A Rain Light Rain Showers
12:00 PM 47 °F - 40 °F 68% 30.04 in 12 mi WSW 6.7 mph - - Rain Light Rain Showers
12:00 PM 46.4 °F 41.1 °F 41.0 °F 81% 30.01 in 6.2 mi SW 11.5 mph - N/A   Mostly Cloudy
12:30 PM 46.4 °F 40.4 °F 41.0 °F 81% 30.01 in 6.2 mi West 13.8 mph - N/A   Mostly Cloudy
1:00 PM 47 °F - 40 °F 69% 30.05 in 19 mi WSW 11.2 mph - -   Partly Cloudy
1:00 PM 46.4 °F 39.8 °F 41.0 °F 81% 30.04 in 6.2 mi West 16.1 mph - N/A   Mostly Cloudy
1:30 PM 46.4 °F 40.7 °F 41.0 °F 81% 30.04 in 6.2 mi West 12.7 mph - N/A   Mostly Cloudy
2:00 PM 46 °F - 39 °F 67% 30.06 in 19 mi West 11.2 mph - - Rain Light Rain Showers
2:00 PM 44.6 °F 38.1 °F 39.2 °F 81% 30.04 in 6.2 mi West 13.8 mph - N/A   Scattered Clouds
2:30 PM 44.6 °F 38.4 °F 37.4 °F 76% 30.04 in 6.2 mi West 12.7 mph - N/A   Partly Cloudy
3:00 PM 45 °F - 38 °F 68% 30.09 in 19 mi West 8.9 mph - -   Scattered Clouds
3:00 PM 44.6 °F 38.8 °F 37.4 °F 76% 30.06 in 6.2 mi West 11.5 mph - N/A   Partly Cloudy
3:30 PM 42.8 °F 38.0 °F 37.4 °F 81% 30.06 in 6.2 mi West 8.1 mph - N/A   Partly Cloudy
4:00 PM 43 °F - 36 °F 70% 30.11 in 12 mi WSW 4.5 mph - -   Partly Cloudy
4:00 PM 42.8 °F 38.6 °F 37.4 °F 81% 30.09 in 6.2 mi West 6.9 mph - N/A   Partly Cloudy
4:30 PM 41.0 °F 38.0 °F 35.6 °F 81% 30.09 in - WSW 4.6 mph - N/A   Clear
5:00 PM 39 °F - 35 °F 82% 30.12 in 12 mi Calm Calm - -   Scattered Clouds
5:00 PM 37.4 °F 32.1 °F 35.6 °F 93% 30.09 in 6.2 mi SSW 6.9 mph - N/A   Partly Cloudy
5:30 PM 39.2 °F 35.0 °F 37.4 °F 93% 30.09 in 6.2 mi SSW 5.8 mph - N/A   Scattered Clouds
6:00 PM 41 °F - 38 °F 87% 30.13 in 12 mi SW 6.7 mph - -   Mostly Cloudy
6:00 PM 39.2 °F 33.6 °F 37.4 °F 93% 30.09 in 6.2 mi SW 8.1 mph - N/A   Mostly Cloudy
6:30 PM 41.0 °F 35.2 °F 37.4 °F 87% 30.09 in - WSW 9.2 mph - N/A   Clear
7:00 PM 40 °F - 37 °F 83% 30.13 in 12 mi SW 4.5 mph - -   Partly Cloudy
7:00 PM 39.2 °F 33.6 °F 37.4 °F 93% 30.09 in - SW 8.1 mph - N/A   Clear
7:30 PM 39.2 °F 34.2 °F 37.4 °F 93% 30.12 in 6.2 mi SW 6.9 mph - N/A   Partly Cloudy
8:00 PM 36 °F - 34 °F 91% 30.14 in 9 mi Calm Calm - -   Scattered Clouds
8:00 PM 35.6 °F 30.7 °F 33.8 °F 93% 30.09 in 6.2 mi SSW 5.8 mph - N/A   Partly Cloudy
8:30 PM 35.6 °F 29.9 °F 35.6 °F 100% 30.09 in - SSW 6.9 mph - N/A   Clear
9:00 PM 35 °F - 33 °F 92% 30.14 in 6 mi Calm Calm - - Fog Patches of Fog
9:00 PM 33.8 °F 27.7 °F 33.8 °F 100% 30.09 in 6.2 mi South 6.9 mph - N/A Fog Shallow Fog
9:30 PM 33.8 °F 28.6 °F 33.8 °F 100% 30.09 in 6.2 mi South 5.8 mph - N/A Fog Shallow Fog
10:00 PM 35 °F - 34 °F 93% 30.14 in 6 mi South 2.2 mph - -   Scattered Clouds
10:00 PM 35.6 °F 28.6 °F 35.6 °F 100% 30.09 in - South 9.2 mph - N/A   Clear
10:30 PM 33.8 °F 26.4 °F 33.8 °F 100% 30.09 in - South 9.2 mph - N/A   Clear
11:00 PM 35 °F - 34 °F 96% 30.12 in 6 mi SSE 6.7 mph - -   Scattered Clouds
11:00 PM 33.8 °F 25.8 °F 33.8 °F 100% 30.09 in - South 10.4 mph - N/A   Clear
11:30 PM 33.8 °F 25.8 °F 33.8 °F 100% 30.09 in - South 10.4 mph - N/A   Clear